Year,Month,Day,Hour,Minute,Value (Times are PST for temperature in C)
2012,11,17,00,00,8.40
2012,11,17,00,01,8.40
2012,11,17,00,02,8.50
2012,11,17,00,03,8.50
2012,11,17,00,04,8.50
2012,11,17,00,05,8.50
2012,11,17,00,06,8.60
2012,11,17,00,07,8.60
2012,11,17,00,08,8.60
2012,11,17,00,09,8.60
2012,11,17,00,10,8.70
2012,11,17,00,11,8.70
2012,11,17,00,12,8.70
2012,11,17,00,13,8.70
2012,11,17,00,14,8.70
2012,11,17,00,15,8.80
2012,11,17,00,16,8.80
2012,11,17,00,17,8.80
2012,11,17,00,18,8.90
2012,11,17,00,19,8.90
2012,11,17,00,20,8.90
2012,11,17,00,21,8.90
2012,11,17,00,22,9.00
2012,11,17,00,23,9.00
2012,11,17,00,24,9.10
2012,11,17,00,25,9.10
2012,11,17,00,26,9.10
2012,11,17,00,27,9.20
2012,11,17,00,28,9.20
2012,11,17,00,29,9.30
2012,11,17,00,30,9.30
2012,11,17,00,31,9.30
2012,11,17,00,32,9.30
2012,11,17,00,33,9.30
2012,11,17,00,34,9.40
2012,11,17,00,35,9.40
2012,11,17,00,36,9.40
2012,11,17,00,37,9.50
2012,11,17,00,38,9.50
2012,11,17,00,39,9.60
2012,11,17,00,40,9.60
2012,11,17,00,41,9.60
2012,11,17,00,42,9.60
2012,11,17,00,43,9.60
2012,11,17,00,44,9.60
2012,11,17,00,45,9.60
2012,11,17,00,46,9.60
2012,11,17,00,47,9.60
2012,11,17,00,48,9.60
2012,11,17,00,49,9.60
2012,11,17,00,50,9.60
2012,11,17,00,51,9.60
2012,11,17,00,52,9.60
2012,11,17,00,53,9.60
2012,11,17,00,54,9.60
2012,11,17,00,55,9.60
2012,11,17,00,56,9.60
2012,11,17,00,57,9.60
2012,11,17,00,58,9.60
2012,11,17,00,59,9.60
2012,11,17,01,00,9.70
2012,11,17,01,01,9.70
2012,11,17,01,02,9.70
2012,11,17,01,03,9.70
2012,11,17,01,04,9.70
2012,11,17,01,05,9.70
2012,11,17,01,06,9.70
2012,11,17,01,07,9.70
2012,11,17,01,08,9.70
2012,11,17,01,09,9.70
2012,11,17,01,10,9.70
2012,11,17,01,11,9.70
2012,11,17,01,12,9.70
2012,11,17,01,13,9.70
2012,11,17,01,14,9.70
2012,11,17,01,15,9.70
2012,11,17,01,16,9.70
2012,11,17,01,17,9.70
2012,11,17,01,18,9.70
2012,11,17,01,19,9.70
2012,11,17,01,20,9.70
2012,11,17,01,21,9.70
2012,11,17,01,22,9.70
2012,11,17,01,23,9.80
2012,11,17,01,24,9.80
2012,11,17,01,25,9.80
2012,11,17,01,26,9.80
2012,11,17,01,27,9.90
2012,11,17,01,28,9.90
2012,11,17,01,29,9.90
2012,11,17,01,30,9.90
2012,11,17,01,31,9.90
2012,11,17,01,32,10.00
2012,11,17,01,33,10.00
2012,11,17,01,34,10.00
2012,11,17,01,35,10.00
2012,11,17,01,36,10.00
2012,11,17,01,37,10.00
2012,11,17,01,38,10.00
2012,11,17,01,39,10.00
2012,11,17,01,40,10.00
2012,11,17,01,41,10.00
2012,11,17,01,42,10.00
2012,11,17,01,43,10.00
2012,11,17,01,44,10.00
2012,11,17,01,45,10.00
2012,11,17,01,46,9.90
2012,11,17,01,47,9.90
2012,11,17,01,48,9.90
2012,11,17,01,49,9.90
2012,11,17,01,50,9.90
2012,11,17,01,51,9.90
2012,11,17,01,52,9.90
2012,11,17,01,53,9.90
2012,11,17,01,54,9.90
2012,11,17,01,55,9.90
2012,11,17,01,56,10.00
2012,11,17,01,57,10.00
2012,11,17,01,58,10.00
2012,11,17,01,59,10.00
2012,11,17,02,00,10.00
2012,11,17,02,01,10.00
2012,11,17,02,02,10.00
2012,11,17,02,03,10.00
2012,11,17,02,04,10.00
2012,11,17,02,05,10.00
2012,11,17,02,06,10.00
2012,11,17,02,07,10.00
2012,11,17,02,08,10.00
2012,11,17,02,09,10.00
2012,11,17,02,10,10.00
2012,11,17,02,11,10.00
2012,11,17,02,12,10.00
2012,11,17,02,13,9.90
2012,11,17,02,14,9.90
2012,11,17,02,15,9.90
2012,11,17,02,16,9.90
2012,11,17,02,17,9.90
2012,11,17,02,18,9.90
2012,11,17,02,19,9.90
2012,11,17,02,20,10.00
2012,11,17,02,21,10.00
2012,11,17,02,22,10.10
2012,11,17,02,23,10.10
2012,11,17,02,24,10.10
2012,11,17,02,25,10.20
2012,11,17,02,26,10.20
2012,11,17,02,27,10.20
2012,11,17,02,28,10.20
2012,11,17,02,29,10.20
2012,11,17,02,30,10.20
2012,11,17,02,31,10.20
2012,11,17,02,32,10.20
2012,11,17,02,33,10.20
2012,11,17,02,34,10.20
2012,11,17,02,35,10.20
2012,11,17,02,36,10.20
2012,11,17,02,37,10.20
2012,11,17,02,38,10.30
2012,11,17,02,39,10.30
2012,11,17,02,40,10.30
2012,11,17,02,41,10.40
2012,11,17,02,42,10.40
2012,11,17,02,43,10.40
2012,11,17,02,44,10.40
2012,11,17,02,45,10.40
2012,11,17,02,46,10.50
2012,11,17,02,47,10.60
2012,11,17,02,48,10.60
2012,11,17,02,49,10.60
2012,11,17,02,50,10.60
2012,11,17,02,51,10.60
2012,11,17,02,52,10.60
2012,11,17,02,53,10.60
2012,11,17,02,54,10.60
2012,11,17,02,55,10.60
2012,11,17,02,56,10.60
2012,11,17,02,57,10.60
2012,11,17,02,58,10.60
2012,11,17,02,59,10.60
2012,11,17,03,00,10.60
2012,11,17,03,01,10.60
2012,11,17,03,02,10.50
2012,11,17,03,03,10.50
2012,11,17,03,04,10.50
2012,11,17,03,05,10.50
2012,11,17,03,06,10.50
2012,11,17,03,07,10.50
2012,11,17,03,08,10.50
2012,11,17,03,09,10.50
2012,11,17,03,10,10.50
2012,11,17,03,11,10.50
2012,11,17,03,12,10.50
2012,11,17,03,13,10.50
2012,11,17,03,14,10.50
2012,11,17,03,15,10.60
2012,11,17,03,16,10.60
2012,11,17,03,17,10.50
2012,11,17,03,18,10.50
2012,11,17,03,19,10.50
2012,11,17,03,20,10.50
2012,11,17,03,21,10.50
2012,11,17,03,22,10.40
2012,11,17,03,23,10.40
2012,11,17,03,24,10.40
2012,11,17,03,25,10.40
2012,11,17,03,26,10.40
2012,11,17,03,27,10.30
2012,11,17,03,28,10.30
2012,11,17,03,29,10.40
2012,11,17,03,30,10.40
2012,11,17,03,31,10.40
2012,11,17,03,32,10.40
2012,11,17,03,33,10.40
2012,11,17,03,34,10.40
2012,11,17,03,35,10.40
2012,11,17,03,36,10.40
2012,11,17,03,37,10.40
2012,11,17,03,38,10.40
2012,11,17,03,39,10.50
2012,11,17,03,40,10.50
2012,11,17,03,41,10.50
2012,11,17,03,42,10.50
2012,11,17,03,43,10.50
2012,11,17,03,44,10.60
2012,11,17,03,45,10.60
2012,11,17,03,46,10.60
2012,11,17,03,47,10.60
2012,11,17,03,48,10.70
2012,11,17,03,49,10.70
2012,11,17,03,50,10.70
2012,11,17,03,51,10.70
2012,11,17,03,52,10.70
2012,11,17,03,53,10.70
2012,11,17,03,54,10.70
2012,11,17,03,55,10.70
2012,11,17,03,56,10.70
2012,11,17,03,57,10.70
2012,11,17,03,58,10.70
2012,11,17,03,59,10.70
2012,11,17,04,00,10.70
2012,11,17,04,01,10.60
2012,11,17,04,02,10.60
2012,11,17,04,03,10.60
2012,11,17,04,04,10.60
2012,11,17,04,05,10.60
2012,11,17,04,06,10.60
2012,11,17,04,07,10.60
2012,11,17,04,08,10.60
2012,11,17,04,09,10.70
2012,11,17,04,10,10.70
2012,11,17,04,11,10.70
2012,11,17,04,12,10.80
2012,11,17,04,13,10.80
2012,11,17,04,14,10.80
2012,11,17,04,15,10.80
2012,11,17,04,16,10.90
2012,11,17,04,17,10.90
2012,11,17,04,18,10.90
2012,11,17,04,19,10.90
2012,11,17,04,20,10.90
2012,11,17,04,21,10.90
2012,11,17,04,22,10.90
2012,11,17,04,23,10.90
2012,11,17,04,24,10.90
2012,11,17,04,25,10.90
2012,11,17,04,26,10.90
2012,11,17,04,27,10.90
2012,11,17,04,28,10.90
2012,11,17,04,29,10.90
2012,11,17,04,30,10.90
2012,11,17,04,31,10.90
2012,11,17,04,32,10.90
2012,11,17,04,33,10.90
2012,11,17,04,34,10.90
2012,11,17,04,35,10.90
2012,11,17,04,36,10.90
2012,11,17,04,37,10.90
2012,11,17,04,38,10.90
2012,11,17,04,39,10.90
2012,11,17,04,40,11.00
2012,11,17,04,41,11.00
2012,11,17,04,42,11.00
2012,11,17,04,43,11.10
2012,11,17,04,44,11.00
2012,11,17,04,45,11.00
2012,11,17,04,46,11.00
2012,11,17,04,47,11.00
2012,11,17,04,48,11.00
2012,11,17,04,49,10.90
2012,11,17,04,50,10.90
2012,11,17,04,51,10.90
2012,11,17,04,52,10.90
2012,11,17,04,53,10.90
2012,11,17,04,54,10.90
2012,11,17,04,55,10.90
2012,11,17,04,56,10.90
2012,11,17,04,57,10.90
2012,11,17,04,58,10.90
2012,11,17,04,59,10.90
2012,11,17,05,00,10.90
2012,11,17,05,01,10.90
2012,11,17,05,02,10.90
2012,11,17,05,03,11.00
2012,11,17,05,04,11.00
2012,11,17,05,05,11.00
2012,11,17,05,06,11.00
2012,11,17,05,07,11.00
2012,11,17,05,08,11.10
2012,11,17,05,09,11.00
2012,11,17,05,10,11.00
2012,11,17,05,11,11.00
2012,11,17,05,12,11.00
2012,11,17,05,13,11.00
2012,11,17,05,14,11.00
2012,11,17,05,15,11.00
2012,11,17,05,16,11.00
2012,11,17,05,17,11.00
2012,11,17,05,18,11.00
2012,11,17,05,19,11.00
2012,11,17,05,20,11.00
2012,11,17,05,21,10.90
2012,11,17,05,22,10.90
2012,11,17,05,23,10.90
2012,11,17,05,24,10.90
2012,11,17,05,25,10.90
2012,11,17,05,26,10.90
2012,11,17,05,27,10.90
2012,11,17,05,28,10.90
2012,11,17,05,29,10.90
2012,11,17,05,30,10.90
2012,11,17,05,31,10.90
2012,11,17,05,32,10.90
2012,11,17,05,33,10.90
2012,11,17,05,34,10.90
2012,11,17,05,35,10.90
2012,11,17,05,36,10.90
2012,11,17,05,37,10.90
2012,11,17,05,38,10.90
2012,11,17,05,39,10.80
2012,11,17,05,40,10.80
2012,11,17,05,41,10.80
2012,11,17,05,42,10.80
2012,11,17,05,43,10.80
2012,11,17,05,44,10.80
2012,11,17,05,45,10.80
2012,11,17,05,46,10.80
2012,11,17,05,47,10.80
2012,11,17,05,48,10.80
2012,11,17,05,49,10.80
2012,11,17,05,50,10.80
2012,11,17,05,51,10.80
2012,11,17,05,52,10.80
2012,11,17,05,53,10.90
2012,11,17,05,54,10.90
2012,11,17,05,55,10.80
2012,11,17,05,56,10.80
2012,11,17,05,57,10.80
2012,11,17,05,58,10.80
2012,11,17,05,59,10.80
2012,11,17,06,00,10.80
2012,11,17,06,01,10.80
2012,11,17,06,02,10.80
2012,11,17,06,03,10.80
2012,11,17,06,04,10.80
2012,11,17,06,05,10.80
2012,11,17,06,06,10.80
2012,11,17,06,07,10.80
2012,11,17,06,08,10.80
2012,11,17,06,09,10.80
2012,11,17,06,10,10.80
2012,11,17,06,11,10.80
2012,11,17,06,12,10.80
2012,11,17,06,13,10.80
2012,11,17,06,14,10.90
2012,11,17,06,15,10.90
2012,11,17,06,16,10.90
2012,11,17,06,17,10.90
2012,11,17,06,18,10.90
2012,11,17,06,19,11.00
2012,11,17,06,20,11.00
2012,11,17,06,21,11.10
2012,11,17,06,22,11.20
2012,11,17,06,23,11.20
2012,11,17,06,24,11.20
2012,11,17,06,25,11.30
2012,11,17,06,26,11.40
2012,11,17,06,27,11.40
2012,11,17,06,28,11.50
2012,11,17,06,29,11.50
2012,11,17,06,30,11.50
2012,11,17,06,31,11.60
2012,11,17,06,32,11.60
2012,11,17,06,33,11.50
2012,11,17,06,34,11.50
2012,11,17,06,35,11.50
2012,11,17,06,36,11.50
2012,11,17,06,37,11.50
2012,11,17,06,38,11.50
2012,11,17,06,39,11.50
2012,11,17,06,40,11.50
2012,11,17,06,41,11.50
2012,11,17,06,42,11.50
2012,11,17,06,43,11.50
2012,11,17,06,44,11.50
2012,11,17,06,45,11.50
2012,11,17,06,46,11.50
2012,11,17,06,47,11.50
2012,11,17,06,48,11.50
2012,11,17,06,49,11.50
2012,11,17,06,50,11.40
2012,11,17,06,51,11.40
2012,11,17,06,52,11.40
2012,11,17,06,53,11.40
2012,11,17,06,54,11.40
2012,11,17,06,55,11.30
2012,11,17,06,56,11.30
2012,11,17,06,57,11.40
2012,11,17,06,58,11.40
2012,11,17,06,59,11.40
2012,11,17,07,00,11.40
2012,11,17,07,01,11.40
2012,11,17,07,02,11.40
2012,11,17,07,03,11.40
2012,11,17,07,04,11.30
2012,11,17,07,05,11.30
2012,11,17,07,06,11.30
2012,11,17,07,07,11.30
2012,11,17,07,08,11.20
2012,11,17,07,09,11.20
2012,11,17,07,10,11.20
2012,11,17,07,11,11.20
2012,11,17,07,12,11.10
2012,11,17,07,13,11.10
2012,11,17,07,14,11.10
2012,11,17,07,15,11.10
2012,11,17,07,16,11.00
2012,11,17,07,17,11.00
2012,11,17,07,18,11.00
2012,11,17,07,19,11.10
2012,11,17,07,20,11.10
2012,11,17,07,21,11.10
2012,11,17,07,22,11.10
2012,11,17,07,23,11.10
2012,11,17,07,24,11.10
2012,11,17,07,25,11.10
2012,11,17,07,26,11.20
2012,11,17,07,27,11.20
2012,11,17,07,28,11.20
2012,11,17,07,29,11.30
2012,11,17,07,30,11.30
2012,11,17,07,31,11.30
2012,11,17,07,32,11.30
2012,11,17,07,33,11.30
2012,11,17,07,34,11.40
2012,11,17,07,35,11.40
2012,11,17,07,36,11.40
2012,11,17,07,37,11.40
2012,11,17,07,38,11.40
2012,11,17,07,39,11.50
2012,11,17,07,40,11.50
2012,11,17,07,41,11.60
2012,11,17,07,42,11.60
2012,11,17,07,43,11.70
2012,11,17,07,44,11.70
2012,11,17,07,45,11.70
2012,11,17,07,46,11.70
2012,11,17,07,47,11.70
2012,11,17,07,48,11.80
2012,11,17,07,49,11.80
2012,11,17,07,50,11.80
2012,11,17,07,51,11.90
2012,11,17,07,52,11.90
2012,11,17,07,53,12.00
2012,11,17,07,54,12.00
2012,11,17,07,55,12.00
2012,11,17,07,56,12.00
2012,11,17,07,57,12.00
2012,11,17,07,58,12.00
2012,11,17,07,59,11.90
2012,11,17,08,00,11.90
2012,11,17,08,01,11.90
2012,11,17,08,02,11.90
2012,11,17,08,03,11.90
2012,11,17,08,04,11.80
2012,11,17,08,05,11.80
2012,11,17,08,06,11.80
2012,11,17,08,07,11.80
2012,11,17,08,08,11.80
2012,11,17,08,09,11.70
2012,11,17,08,10,11.70
2012,11,17,08,11,11.70
2012,11,17,08,12,11.70
2012,11,17,08,13,11.70
2012,11,17,08,14,11.70
2012,11,17,08,15,11.60
2012,11,17,08,16,11.60
2012,11,17,08,17,11.60
2012,11,17,08,18,11.60
2012,11,17,08,19,11.60
2012,11,17,08,20,11.70
2012,11,17,08,21,11.70
2012,11,17,08,22,11.70
2012,11,17,08,23,11.70
2012,11,17,08,24,11.70
2012,11,17,08,25,11.70
2012,11,17,08,26,11.60
2012,11,17,08,27,11.60
2012,11,17,08,28,11.60
2012,11,17,08,29,11.60
2012,11,17,08,30,11.60
2012,11,17,08,31,11.60
2012,11,17,08,32,11.60
2012,11,17,08,33,11.60
2012,11,17,08,34,11.60
2012,11,17,08,35,11.50
2012,11,17,08,36,11.50
2012,11,17,08,37,11.50
2012,11,17,08,38,11.60
2012,11,17,08,39,11.60
2012,11,17,08,40,11.60
2012,11,17,08,41,11.60
2012,11,17,08,42,11.60
2012,11,17,08,43,11.60
2012,11,17,08,44,11.60
2012,11,17,08,45,11.60
2012,11,17,08,46,11.60
2012,11,17,08,47,11.70
2012,11,17,08,48,11.70
2012,11,17,08,49,11.70
2012,11,17,08,50,11.70
2012,11,17,08,51,11.70
2012,11,17,08,52,11.70
2012,11,17,08,53,11.70
2012,11,17,08,54,11.70
2012,11,17,08,55,11.80
2012,11,17,08,56,11.80
2012,11,17,08,57,11.80
2012,11,17,08,58,11.80
2012,11,17,08,59,11.80
2012,11,17,09,00,11.90
2012,11,17,09,01,11.90
2012,11,17,09,02,11.90
2012,11,17,09,03,11.90
2012,11,17,09,04,12.00
2012,11,17,09,05,12.00
2012,11,17,09,06,12.00
2012,11,17,09,07,12.00
2012,11,17,09,08,12.10
2012,11,17,09,09,12.10
2012,11,17,09,10,12.10
2012,11,17,09,11,12.10
2012,11,17,09,12,12.10
2012,11,17,09,13,12.10
2012,11,17,09,14,12.10
2012,11,17,09,15,12.10
2012,11,17,09,16,12.10
2012,11,17,09,17,12.10
2012,11,17,09,18,12.10
2012,11,17,09,19,12.10
2012,11,17,09,20,12.10
2012,11,17,09,21,12.10
2012,11,17,09,22,12.10
2012,11,17,09,23,12.10
2012,11,17,09,24,12.10
2012,11,17,09,25,12.10
2012,11,17,09,26,12.10
2012,11,17,09,27,12.10
2012,11,17,09,28,12.10
2012,11,17,09,29,12.10
2012,11,17,09,30,12.10
2012,11,17,09,31,12.10
2012,11,17,09,32,12.10
2012,11,17,09,33,12.10
2012,11,17,09,34,12.10
2012,11,17,09,35,12.10
2012,11,17,09,36,12.10
2012,11,17,09,37,12.10
2012,11,17,09,38,12.10
2012,11,17,09,39,12.10
2012,11,17,09,40,12.10
2012,11,17,09,41,12.10
2012,11,17,09,42,12.10
2012,11,17,09,43,12.10
2012,11,17,09,44,12.10
2012,11,17,09,45,12.10
2012,11,17,09,46,12.10
2012,11,17,09,47,12.10
2012,11,17,09,48,12.00
2012,11,17,09,49,12.00
2012,11,17,09,50,11.90
2012,11,17,09,51,11.90
2012,11,17,09,52,11.80
2012,11,17,09,53,11.70
2012,11,17,09,54,11.60
2012,11,17,09,55,11.50
2012,11,17,09,56,11.40
2012,11,17,09,57,11.20
2012,11,17,09,58,11.10
2012,11,17,09,59,11.00
2012,11,17,10,00,10.90
2012,11,17,10,01,10.80
2012,11,17,10,02,10.60
2012,11,17,10,03,10.50
2012,11,17,10,04,10.40
2012,11,17,10,05,10.40
2012,11,17,10,06,10.30
2012,11,17,10,07,10.20
2012,11,17,10,08,10.20
2012,11,17,10,09,10.10
2012,11,17,10,10,10.00
2012,11,17,10,11,9.90
2012,11,17,10,12,9.90
2012,11,17,10,13,9.80
2012,11,17,10,14,9.80
2012,11,17,10,15,9.70
2012,11,17,10,16,9.70
2012,11,17,10,17,9.70
2012,11,17,10,18,9.70
2012,11,17,10,19,9.60
2012,11,17,10,20,9.60
2012,11,17,10,21,9.60
2012,11,17,10,22,9.60
2012,11,17,10,23,9.60
2012,11,17,10,24,9.50
2012,11,17,10,25,9.50
2012,11,17,10,26,9.50
2012,11,17,10,27,9.40
2012,11,17,10,28,9.40
2012,11,17,10,29,9.40
2012,11,17,10,30,9.40
2012,11,17,10,31,9.40
2012,11,17,10,32,9.40
2012,11,17,10,33,9.30
2012,11,17,10,34,9.30
2012,11,17,10,35,9.30
2012,11,17,10,36,9.30
2012,11,17,10,37,9.30
2012,11,17,10,38,9.30
2012,11,17,10,39,9.30
2012,11,17,10,40,9.30
2012,11,17,10,41,9.30
2012,11,17,10,42,9.20
2012,11,17,10,43,9.20
2012,11,17,10,44,9.20
2012,11,17,10,45,9.20
2012,11,17,10,46,9.20
2012,11,17,10,47,9.20
2012,11,17,10,48,9.20
2012,11,17,10,49,9.20
2012,11,17,10,50,9.20
2012,11,17,10,51,9.20
2012,11,17,10,52,9.20
2012,11,17,10,53,9.20
2012,11,17,10,54,9.20
2012,11,17,10,55,9.20
2012,11,17,10,56,9.20
2012,11,17,10,57,9.20
2012,11,17,10,58,9.20
2012,11,17,10,59,9.10
2012,11,17,11,00,9.10
2012,11,17,11,01,9.10
2012,11,17,11,02,9.10
2012,11,17,11,03,9.10
2012,11,17,11,04,9.10
2012,11,17,11,05,9.10
2012,11,17,11,06,9.10
2012,11,17,11,07,9.10
2012,11,17,11,08,9.10
2012,11,17,11,09,9.00
2012,11,17,11,10,9.00
2012,11,17,11,11,9.00
2012,11,17,11,12,9.00
2012,11,17,11,13,9.00
2012,11,17,11,14,9.00
2012,11,17,11,15,9.00
2012,11,17,11,16,9.00
2012,11,17,11,17,9.00
2012,11,17,11,18,9.00
2012,11,17,11,19,9.00
2012,11,17,11,20,9.00
2012,11,17,11,21,9.00
2012,11,17,11,22,9.00
2012,11,17,11,23,8.90
2012,11,17,11,24,8.90
2012,11,17,11,25,9.00
2012,11,17,11,26,9.00
2012,11,17,11,27,9.00
2012,11,17,11,28,8.90
2012,11,17,11,29,9.00
2012,11,17,11,30,8.90
2012,11,17,11,31,8.90
2012,11,17,11,32,8.90
2012,11,17,11,33,8.90
2012,11,17,11,34,8.90
2012,11,17,11,35,8.90
2012,11,17,11,36,8.90
2012,11,17,11,37,8.80
2012,11,17,11,38,8.80
2012,11,17,11,39,8.80
2012,11,17,11,40,8.80
2012,11,17,11,41,8.80
2012,11,17,11,42,8.70
2012,11,17,11,43,8.70
2012,11,17,11,44,8.70
2012,11,17,11,45,8.70
2012,11,17,11,46,8.70
2012,11,17,11,47,8.70
2012,11,17,11,48,8.70
2012,11,17,11,49,8.70
2012,11,17,11,50,8.70
2012,11,17,11,51,8.70
2012,11,17,11,52,8.60
2012,11,17,11,53,8.60
2012,11,17,11,54,8.60
2012,11,17,11,55,8.60
2012,11,17,11,56,8.60
2012,11,17,11,57,8.60
2012,11,17,11,58,8.60
2012,11,17,11,59,8.60
2012,11,17,12,00,8.60
2012,11,17,12,01,8.60
2012,11,17,12,02,8.60
2012,11,17,12,03,8.60
2012,11,17,12,04,8.60
2012,11,17,12,05,8.50
2012,11,17,12,06,8.50
2012,11,17,12,07,8.50
2012,11,17,12,08,8.50
2012,11,17,12,09,8.50
2012,11,17,12,10,8.50
2012,11,17,12,11,8.50
2012,11,17,12,12,8.50
2012,11,17,12,13,8.50
2012,11,17,12,14,8.50
2012,11,17,12,15,8.50
2012,11,17,12,16,8.40
2012,11,17,12,17,8.40
2012,11,17,12,18,8.40
2012,11,17,12,19,8.40
2012,11,17,12,20,8.40
2012,11,17,12,21,8.40
2012,11,17,12,22,8.40
2012,11,17,12,23,8.40
2012,11,17,12,24,8.40
2012,11,17,12,25,8.30
2012,11,17,12,26,8.30
2012,11,17,12,27,8.30
2012,11,17,12,28,8.30
2012,11,17,12,29,8.30
2012,11,17,12,30,8.30
2012,11,17,12,31,8.30
2012,11,17,12,32,8.30
2012,11,17,12,33,8.30
2012,11,17,12,34,8.30
2012,11,17,12,35,8.20
2012,11,17,12,36,8.20
2012,11,17,12,37,8.20
2012,11,17,12,38,8.20
2012,11,17,12,39,8.20
2012,11,17,12,40,8.20
2012,11,17,12,41,8.10
2012,11,17,12,42,8.10
2012,11,17,12,43,8.10
2012,11,17,12,44,8.10
2012,11,17,12,45,8.10
2012,11,17,12,46,8.10
2012,11,17,12,47,8.10
2012,11,17,12,48,8.10
2012,11,17,12,49,8.10
2012,11,17,12,50,8.10
2012,11,17,12,51,8.00
2012,11,17,12,52,8.00
2012,11,17,12,53,8.00
2012,11,17,12,54,8.00
2012,11,17,12,55,8.00
2012,11,17,12,56,8.00
2012,11,17,12,57,8.10
2012,11,17,12,58,8.10
2012,11,17,12,59,8.10
2012,11,17,13,00,8.10
2012,11,17,13,01,8.00
2012,11,17,13,02,8.00
2012,11,17,13,03,8.00
2012,11,17,13,04,8.00
2012,11,17,13,05,8.00
2012,11,17,13,06,8.10
2012,11,17,13,07,8.00
2012,11,17,13,08,8.00
2012,11,17,13,09,8.10
2012,11,17,13,10,8.00
2012,11,17,13,11,8.10
2012,11,17,13,12,8.10
2012,11,17,13,13,8.10
2012,11,17,13,14,8.00
2012,11,17,13,15,7.90
2012,11,17,13,16,7.90
2012,11,17,13,17,7.80
2012,11,17,13,18,7.80
2012,11,17,13,19,7.80
2012,11,17,13,20,7.80
2012,11,17,13,21,7.80
2012,11,17,13,22,7.80
2012,11,17,13,23,7.70
2012,11,17,13,24,7.70
2012,11,17,13,25,7.70
2012,11,17,13,26,7.70
2012,11,17,13,27,7.70
2012,11,17,13,28,7.60
2012,11,17,13,29,7.60
2012,11,17,13,30,7.60
2012,11,17,13,31,7.60
2012,11,17,13,32,7.60
2012,11,17,13,33,7.60
2012,11,17,13,34,7.60
2012,11,17,13,35,7.60
2012,11,17,13,36,7.60
2012,11,17,13,37,7.60
2012,11,17,13,38,7.60
2012,11,17,13,39,7.60
2012,11,17,13,40,7.60
2012,11,17,13,41,7.60
2012,11,17,13,42,7.60
2012,11,17,13,43,7.60
2012,11,17,13,44,7.60
2012,11,17,13,45,7.60
2012,11,17,13,46,7.50
2012,11,17,13,47,7.50
2012,11,17,13,48,7.50
2012,11,17,13,49,7.40
2012,11,17,13,50,7.40
2012,11,17,13,51,7.30
2012,11,17,13,52,7.30
2012,11,17,13,53,7.30
2012,11,17,13,54,7.20
2012,11,17,13,55,7.20
2012,11,17,13,56,7.20
2012,11,17,13,57,7.20
2012,11,17,13,58,7.10
2012,11,17,13,59,7.10
2012,11,17,14,00,7.10
2012,11,17,14,01,7.10
2012,11,17,14,02,7.10
2012,11,17,14,03,7.10
2012,11,17,14,04,7.10
2012,11,17,14,05,7.10
2012,11,17,14,06,7.10
2012,11,17,14,07,7.10
2012,11,17,14,08,7.10
2012,11,17,14,09,7.10
2012,11,17,14,10,7.10
2012,11,17,14,11,7.10
2012,11,17,14,12,7.10
2012,11,17,14,13,7.10
2012,11,17,14,14,7.10
2012,11,17,14,15,7.10
2012,11,17,14,16,7.10
2012,11,17,14,17,7.10
2012,11,17,14,18,7.10
2012,11,17,14,19,7.10
2012,11,17,14,20,7.10
2012,11,17,14,21,7.10
2012,11,17,14,22,7.10
2012,11,17,14,23,7.10
2012,11,17,14,24,7.10
2012,11,17,14,25,7.10
2012,11,17,14,26,7.10
2012,11,17,14,27,7.10
2012,11,17,14,28,7.10
2012,11,17,14,29,7.10
2012,11,17,14,30,7.10
2012,11,17,14,31,7.10
2012,11,17,14,32,7.10
2012,11,17,14,33,7.10
2012,11,17,14,34,7.10
2012,11,17,14,35,7.10
2012,11,17,14,36,7.10
2012,11,17,14,37,7.10
2012,11,17,14,38,7.00
2012,11,17,14,39,7.00
2012,11,17,14,40,7.00
2012,11,17,14,41,7.00
2012,11,17,14,42,7.00
2012,11,17,14,43,7.00
2012,11,17,14,44,7.00
2012,11,17,14,45,6.90
2012,11,17,14,46,6.90
2012,11,17,14,47,6.90
2012,11,17,14,48,6.90
2012,11,17,14,49,6.90
2012,11,17,14,50,6.90
2012,11,17,14,51,6.80
2012,11,17,14,52,6.80
2012,11,17,14,53,6.80
2012,11,17,14,54,6.80
2012,11,17,14,55,6.80
2012,11,17,14,56,6.80
2012,11,17,14,57,6.80
2012,11,17,14,58,6.80
2012,11,17,14,59,6.80
2012,11,17,15,00,6.80
2012,11,17,15,01,6.80
2012,11,17,15,02,6.80
2012,11,17,15,03,6.80
2012,11,17,15,04,6.80
2012,11,17,15,05,6.80
2012,11,17,15,06,6.80
2012,11,17,15,07,6.80
2012,11,17,15,08,6.80
2012,11,17,15,09,6.80
2012,11,17,15,10,6.80
2012,11,17,15,11,6.80
2012,11,17,15,12,6.70
2012,11,17,15,13,6.80
2012,11,17,15,14,6.80
2012,11,17,15,15,6.80
2012,11,17,15,16,6.80
2012,11,17,15,17,6.80
2012,11,17,15,18,6.80
2012,11,17,15,19,6.80
2012,11,17,15,20,6.80
2012,11,17,15,21,6.80
2012,11,17,15,22,6.80
2012,11,17,15,23,6.80
2012,11,17,15,24,6.80
2012,11,17,15,25,6.80
2012,11,17,15,26,6.80
2012,11,17,15,27,6.80
2012,11,17,15,28,6.80
2012,11,17,15,29,6.80
2012,11,17,15,30,6.80
2012,11,17,15,31,6.80
2012,11,17,15,32,6.80
2012,11,17,15,33,6.80
2012,11,17,15,34,6.80
2012,11,17,15,35,6.80
2012,11,17,15,36,6.80
2012,11,17,15,37,6.80
2012,11,17,15,38,6.80
2012,11,17,15,39,6.80
2012,11,17,15,40,6.80
2012,11,17,15,41,6.90
2012,11,17,15,42,6.90
2012,11,17,15,43,6.90
2012,11,17,15,44,6.90
2012,11,17,15,45,6.90
2012,11,17,15,46,6.90
2012,11,17,15,47,7.00
2012,11,17,15,48,6.90
2012,11,17,15,49,6.90
2012,11,17,15,50,6.90
2012,11,17,15,51,6.90
2012,11,17,15,52,6.90
2012,11,17,15,53,6.90
2012,11,17,15,54,7.00
2012,11,17,15,55,7.00
2012,11,17,15,56,7.00
2012,11,17,15,57,7.00
2012,11,17,15,58,7.10
2012,11,17,15,59,7.10
2012,11,17,16,00,7.10
2012,11,17,16,01,7.10
2012,11,17,16,02,7.10
2012,11,17,16,03,7.10
2012,11,17,16,04,7.10
2012,11,17,16,05,7.10
2012,11,17,16,06,7.10
2012,11,17,16,07,7.20
2012,11,17,16,08,7.20
2012,11,17,16,09,7.20
2012,11,17,16,10,7.20
2012,11,17,16,11,7.20
2012,11,17,16,12,7.20
2012,11,17,16,13,7.20
2012,11,17,16,14,7.20
2012,11,17,16,15,7.20
2012,11,17,16,16,7.30
2012,11,17,16,17,7.30
2012,11,17,16,18,7.30
2012,11,17,16,19,7.40
2012,11,17,16,20,7.40
2012,11,17,16,21,7.40
2012,11,17,16,22,7.40
2012,11,17,16,23,7.50
2012,11,17,16,24,7.50
2012,11,17,16,25,7.50
2012,11,17,16,26,7.60
2012,11,17,16,27,7.60
2012,11,17,16,28,7.60
2012,11,17,16,29,7.60
2012,11,17,16,30,7.60
2012,11,17,16,31,7.70
2012,11,17,16,32,7.70
2012,11,17,16,33,7.70
2012,11,17,16,34,7.70
2012,11,17,16,35,7.70
2012,11,17,16,36,7.70
2012,11,17,16,37,7.70
2012,11,17,16,38,7.70
2012,11,17,16,39,7.70
2012,11,17,16,40,7.70
2012,11,17,16,41,7.70
2012,11,17,16,42,7.70
2012,11,17,16,43,7.70
2012,11,17,16,44,7.70
2012,11,17,16,45,7.70
2012,11,17,16,46,7.70
2012,11,17,16,47,7.70
2012,11,17,16,48,7.60
2012,11,17,16,49,7.70
2012,11,17,16,50,7.70
2012,11,17,16,51,7.70
2012,11,17,16,52,7.70
2012,11,17,16,53,7.70
2012,11,17,16,54,7.70
2012,11,17,16,55,7.60
2012,11,17,16,56,7.60
2012,11,17,16,57,7.60
2012,11,17,16,58,7.60
2012,11,17,16,59,7.50
2012,11,17,17,00,7.50
2012,11,17,17,01,7.50
2012,11,17,17,02,7.40
2012,11,17,17,03,7.50
2012,11,17,17,04,7.40
2012,11,17,17,05,7.40
2012,11,17,17,06,7.50
2012,11,17,17,07,7.50
2012,11,17,17,08,7.50
2012,11,17,17,09,7.60
2012,11,17,17,10,7.60
2012,11,17,17,11,7.60
2012,11,17,17,12,7.60
2012,11,17,17,13,7.60
2012,11,17,17,14,7.60
2012,11,17,17,15,7.60
2012,11,17,17,16,7.50
2012,11,17,17,17,7.50
2012,11,17,17,18,7.50
2012,11,17,17,19,7.40
2012,11,17,17,20,7.40
2012,11,17,17,21,7.40
2012,11,17,17,22,7.40
2012,11,17,17,23,7.40
2012,11,17,17,24,7.30
2012,11,17,17,25,7.30
2012,11,17,17,26,7.30
2012,11,17,17,27,7.20
2012,11,17,17,28,7.20
2012,11,17,17,29,7.20
2012,11,17,17,30,7.20
2012,11,17,17,31,7.20
2012,11,17,17,32,7.20
2012,11,17,17,33,7.30
2012,11,17,17,34,7.30
2012,11,17,17,35,7.30
2012,11,17,17,36,7.20
2012,11,17,17,37,7.20
2012,11,17,17,38,7.20
2012,11,17,17,39,7.20
2012,11,17,17,40,7.20
2012,11,17,17,41,7.20
2012,11,17,17,42,7.20
2012,11,17,17,43,7.20